sat.trackr.live / text

‹ back to catalog

STARLINK-3724

NORAD 52305 · 2022-041AW

PAYLOAD ACTIVE UNKNOWN

§ Identity

Operator
Country
US
Launch date
2022-04-21
Launch site
AFETR
Launch vehicle
Mass (kg)
RCS (m²)

Purposes: comms

External: N2YO · Heavens-Above · Gunter

§ Orbital elements

Epoch: 2026-09-19T19:13:25.034880Z

Period
93.90 min
Inclination
53.1603°
Eccentricity
0.0001514
Mean motion
15.33539596 rev/d
Perigee alt
464.2 km
Apogee alt
466.3 km
Semi-major
6,843.4 km
B*
-8.0517e-6
RAAN
295.1070°
Arg perigee
69.5361°
Mean anomaly
290.5803°
Rev number
24,398

§ Raw data

STARLINK-37241 52305U 22041AW  26262.80098420 -.00000638  00000+0 -80517-5 0  99972 52305  53.1603 295.1070 0001514  69.5361 290.5803 15.33539596243982

JSON: /api/v1/satellites/52305 · /tle

For live sub-satellite position, see the globe view (requires WebGL).

§ Visibility from observer

Set your observer location to see the next 7 days of passes ≥ 10°. The values pass through the URL so the page stays shareable.

No JS? Fill the form by hand. The geolocation button needs JavaScript.